[[{"header":{"parameterUnit":"m.s-1","parameterCategory":1,"la1":30.2991,"la2":30.254,"lo1":-89.0895,"lo2":-89.0444,"dy":0.0017,"dx":0.0017,"nx":28,"ny":28,"refTime":"2024-05-05T21:00:00:Z","depth":0,"parameterNumber":2,"parameterNumberName":"U-component_of_WINDS"},"data":[0,0,0,0,0,0,0,0,0,0,0,0,0,0,0,0,0,0,0,0,0,0,0,0,0,0,0,0,0,0,0,0,0,0,0,0,0,0,0,0,0,0,0,0,0,0,0,0,0,0,0,0,0,0,0,0,0,0,-1.5393,-1.5393,0,-1.5377,-1.5377,-1.5376,-1.5353,-1.5353,-1.5352,-1.5352,-1.5338,-1.5338,-1.5338,0,0,0,0,0,0,0,0,0,0,0,0,0,-1.5405,-1.5405,-1.5393,-1.5393,-1.5392,-1.5377,-1.5377,-1.5376,-1.5353,-1.5353,-1.5352,-1.5352,-1.5338,-1.5338,-1.5338,0,0,0,0,0,0,0,0,0,0,0,0,0,-1.5395,-1.5405,-1.5393,-1.5379,-1.5377,-1.5377,-1.5377,-1.5376,-1.5353,-1.5353,-1.5352,-1.5352,-1.5338,-1.5338,-1.5338,-1.535,0,0,-1.5338,-1.5338,0,0,0,0,0,0,0,0,-1.5396,-1.5395,-1.5381,-1.538,-1.5378,-1.5366,-1.5376,-1.5368,-1.5354,-1.5363,-1.5352,-1.5351,-1.5348,-1.5347,-1.5345,-1.5349,-1.5349,-1.5338,-1.5338,-1.5338,-1.5338,0,0,0,0,0,0,0,-1.5397,-1.5395,-1.5386,-1.5381,-1.5379,-1.5374,-1.5372,-1.5374,-1.5359,-1.5362,-1.536,-1.5358,-1.5347,-1.5345,-1.5345,-1.5348,-1.5338,-1.5338,-1.5338,-1.5338,-1.5361,-1.5361,0,0,0,0,0,0,-1.5399,-1.5396,-1.5387,-1.5386,-1.5386,-1.5374,-1.5372,-1.5371,-1.5359,-1.5356,-1.5359,-1.5357,-1.5346,-1.5345,-1.5344,-1.5357,-1.5338,-1.5338,-1.5338,-1.536,-1.5361,-1.5362,0,0,0,0,0,0,-1.5399,-1.5398,-1.5388,-1.5391,-1.5389,-1.5375,-1.5374,-1.5371,-1.5369,-1.5357,-1.5354,-1.536,-1.5345,-1.5344,-1.5348,-1.5356,-1.5338,-1.5338,-1.5359,-1.536,-1.5361,-1.5383,0,0,0,0,0,0,-1.54,-1.5399,-1.5403,-1.5391,-1.5389,-1.5392,-1.5374,-1.5371,-1.5369,-1.5367,-1.5357,-1.5355,-1.5345,-1.5348,-1.5348,-1.5356,-1.5338,-1.5359,-1.536,-1.5361,-1.5381,-1.5384,-1.5387,0,0,0,0,0,-1.54,-1.541,-1.5403,-1.5402,-1.5393,-1.5392,-1.5391,-1.5378,-1.537,-1.5374,-1.5366,-1.5355,-1.5356,-1.5349,-1.5349,-1.5356,-1.5358,-1.5359,-1.5361,-1.538,-1.5384,-1.5387,0,0,0,0,0,0,-1.5424,-1.5408,-1.54,-1.5406,-1.5401,-1.5388,-1.5393,-1.5383,-1.538,-1.5378,-1.5364,-1.5362,-1.5367,-1.5362,-1.5356,-1.5367,-1.5355,-1.5357,-1.537,-1.5373,-1.5376,-1.5377,-1.5338,0,0,0,0,0,-1.543,-1.543,-1.5416,-1.5423,-1.542,-1.5407,-1.5406,-1.5397,-1.5391,-1.5388,-1.538,-1.5375,-1.5374,-1.5374,-1.5372,-1.5381,-1.5378,-1.5386,-1.5389,-1.5391,-1.5392,-1.5396,-1.5399,-1.5366,-1.5366,-1.5366,0,0,-1.5442,-1.5434,-1.5434,-1.5427,-1.5422,-1.5422,-1.5405,-1.5406,-1.5406,-1.5389,-1.5391,-1.5386,-1.5379,-1.5385,-1.5388,-1.5381,-1.5401,-1.5393,-1.5395,-1.5395,-1.5397,-1.5401,-1.5403,-1.5367,-1.5367,-1.5367,0,0,-1.5464,-1.5458,-1.5462,-1.5457,-1.5448,-1.544,-1.5441,-1.543,-1.5425,-1.5427,-1.5414,-1.5414,-1.5413,-1.5408,-1.5406,-1.5426,-1.5415,-1.5426,-1.544,-1.5444,-1.5446,-1.5449,-1.5455,-1.5457,-1.5427,-1.5427,-1.5427,0,-1.5481,-1.548,-1.5466,-1.5467,-1.5465,-1.5448,-1.5453,-1.5448,-1.544,-1.5439,-1.5432,-1.5429,-1.5423,-1.5428,-1.5433,-1.5432,-1.5432,-1.5426,-1.5447,-1.5449,-1.5451,-1.5457,-1.5459,-1.5429,-1.5428,-1.5428,-1.5428,0,-1.55,-1.5499,-1.5504,-1.5495,-1.5493,-1.5496,-1.5483,-1.5483,-1.5475,-1.5467,-1.5469,-1.5462,-1.5458,-1.5459,-1.5451,-1.5462,-1.5458,-1.545,-1.5437,-1.5455,-1.546,-1.5463,-1.543,-1.543,-1.5429,-1.5429,0,0,-1.5536,-1.5519,-1.5521,-1.5517,-1.5506,-1.5506,-1.5508,-1.5503,-1.5503,-1.5498,-1.55,-1.5499,-1.549,-1.5487,-1.5479,-1.5482,-1.5497,-1.5473,-1.5472,-1.5477,-1.5508,-1.5514,-1.5517,-1.5491,-1.5491,-1.5492,-1.5509,0,-1.5555,-1.5557,-1.5545,-1.555,-1.5549,-1.5534,-1.5536,-1.553,-1.5523,-1.5521,-1.5514,-1.5513,-1.5502,-1.55,-1.5503,-1.5495,-1.5503,-1.5494,-1.5492,-1.5492,-1.5493,-1.552,-1.5526,-1.5542,-1.5511,-1.5511,-1.5511,0,-1.5578,-1.5572,-1.5578,-1.5566,-1.5565,-1.5567,-1.5561,-1.556,-1.5553,-1.5548,-1.5545,-1.5534,-1.5536,-1.5525,-1.5527,-1.5521,-1.552,-1.5516,-1.5516,-1.5514,-1.5502,-1.5518,-1.5547,-1.5549,-1.5515,-1.5514,-1.5514,0,-1.5602,-1.5597,-1.5599,-1.5596,-1.5582,-1.5584,-1.5579,-1.5571,-1.5569,-1.5564,-1.5563,-1.5559,-1.5557,-1.5555,-1.5544,-1.5537,-1.5547,-1.5535,-1.5542,-1.5542,-1.5544,-1.5544,-1.5572,-1.5545,-1.5545,-1.5545,-1.5545,0,-1.5624,-1.5627,-1.5609,-1.561,-1.5614,-1.56,-1.5604,-1.5598,-1.5591,-1.559,-1.5578,-1.5578,-1.5564,-1.5563,-1.5555,-1.5557,-1.5557,-1.5552,-1.555,-1.5553,-1.5553,-1.5551,-1.5549,-1.5546,-1.5546,-1.5546,-1.5546,0,-1.5651,-1.5639,-1.564,-1.5627,-1.5624,-1.5627,-1.5617,-1.5617,-1.5609,-1.5609,-1.5609,-1.5596,-1.5594,-1.5583,-1.5579,-1.5574,-1.5579,-1.5575,-1.5581,-1.5579,-1.5586,-1.5585,-1.5613,-1.5616,-1.5588,-1.5589,-1.5589,0,-1.5666,-1.5668,-1.5655,-1.5653,-1.5648,-1.5646,-1.5643,-1.563,-1.5628,-1.562,-1.5622,-1.5618,-1.5615,-1.5612,-1.5603,-1.56,-1.5595,-1.5605,-1.5594,-1.5597,-1.5594,-1.5593,-1.5593,-1.5607,-1.5608,-1.5608,-1.5608,0,-1.5692,-1.5685,-1.5682,-1.5676,-1.5673,-1.5668,-1.5662,-1.5662,-1.5648,-1.5646,-1.5643,-1.564,-1.5636,-1.5632,-1.5627,-1.5622,-1.5613,-1.5612,-1.5613,-1.5615,-1.5618,-1.5615,-1.5586,-1.5611,-1.5611,-1.561,-1.561,-1.561,-1.5712,-1.5713,-1.5703,-1.57,-1.5694,-1.5689,-1.5688,-1.568,-1.5677,-1.5671,-1.5664,-1.5662,-1.5655,-1.5647,-1.5643,-1.5641,-1.5636,-1.5638,-1.5638,-1.5639,-1.564,-1.5619,-1.564,-1.564,-1.564,-1.564,-1.564,0,-1.5737,-1.573,-1.5726,-1.5718,-1.5715,-1.5706,-1.5699,-1.5697,-1.5695,-1.5689,-1.5685,-1.5682,-1.5679,-1.5669,-1.5665,-1.5666,-1.5661,-1.5665,-1.5664,-1.5663,-1.5645,-1.5644,-1.5669,-1.5669,-1.5669,-1.5669,-1.5669,-1.5669,-1.5749,-1.5749,-1.5742,-1.5739,-1.5733,-1.573,-1.5726,-1.5722,-1.5716,-1.5713,-1.5709,-1.5703,-1.5695,-1.5691,-1.5687,-1.5684,-1.5683,-1.5688,-1.5684,-1.5667,-1.5665,-1.5662,-1.5661,-1.5688,-1.5688,-1.5702,-1.5702,-1.5702]},{"header":{"parameterUnit":"m.s-1","parameterCategory":1,"la1":30.2991,"la2":30.254,"lo1":-89.0895,"lo2":-89.0444,"dy":0.0017,"dx":0.0017,"nx":28,"ny":28,"refTime":"2024-05-05T21:00:00:Z","depth":0,"parameterNumber":3,"parameterNumberName":"V-component_of_WINDS"},"data":[0,0,0,0,0,0,0,0,0,0,0,0,0,0,0,0,0,0,0,0,0,0,0,0,0,0,0,0,0,0,0,0,0,0,0,0,0,0,0,0,0,0,0,0,0,0,0,0,0,0,0,0,0,0,0,0,0,0,4.6659,4.6659,0,4.6652,4.6652,4.6652,4.6619,4.6618,4.6617,4.6617,4.6607,4.6608,4.6608,0,0,0,0,0,0,0,0,0,0,0,0,0,4.6641,4.6642,4.6659,4.6659,4.6659,4.6652,4.6652,4.6652,4.6619,4.6618,4.6617,4.6616,4.6607,4.6608,4.6608,0,0,0,0,0,0,0,0,0,0,0,0,0,4.6643,4.6642,4.6659,4.6641,4.664,4.6652,4.6652,4.6652,4.6619,4.6618,4.6617,4.6616,4.6607,4.6608,4.6608,4.6636,0,0,4.6611,4.6611,0,0,0,0,0,0,0,0,4.6643,4.6644,4.6644,4.6643,4.6641,4.6635,4.6643,4.6647,4.6619,4.6627,4.6616,4.6615,4.6617,4.6617,4.6618,4.6636,4.6635,4.6611,4.6611,4.6611,4.6612,0,0,0,0,0,0,0,4.6643,4.6644,4.6656,4.6644,4.6642,4.6633,4.6632,4.6643,4.6629,4.6626,4.6624,4.6624,4.6616,4.6618,4.6618,4.6635,4.6611,4.6611,4.6612,4.6612,4.6677,4.6679,0,0,0,0,0,0,4.6646,4.6644,4.6656,4.6656,4.6639,4.6635,4.6634,4.6638,4.6628,4.6626,4.6625,4.6622,4.6617,4.6617,4.6617,4.6651,4.6611,4.6612,4.6612,4.6676,4.6678,4.6679,0,0,0,0,0,0,4.6645,4.6647,4.6656,4.6649,4.665,4.6636,4.6642,4.6639,4.664,4.6627,4.6624,4.6629,4.6616,4.6616,4.6633,4.665,4.6612,4.6613,4.6675,4.6677,4.6678,4.6718,0,0,0,0,0,0,4.6645,4.6647,4.6658,4.665,4.665,4.6672,4.6643,4.6639,4.6642,4.6638,4.6631,4.6628,4.6615,4.6632,4.6633,4.6651,4.6614,4.6673,4.6675,4.6678,4.6715,4.6721,4.6726,0,0,0,0,0,4.6644,4.6668,4.6658,4.666,4.6664,4.6673,4.6673,4.6659,4.6643,4.6654,4.6646,4.6628,4.6648,4.6634,4.6635,4.6653,4.6672,4.6675,4.6678,4.6712,4.672,4.6726,0,0,0,0,0,0,4.6677,4.6667,4.6656,4.6678,4.6677,4.6668,4.668,4.6667,4.6669,4.6666,4.6647,4.6646,4.6665,4.666,4.6644,4.668,4.6657,4.666,4.6683,4.669,4.6695,4.6696,4.6614,0,0,0,0,0,4.6687,4.6696,4.6686,4.6706,4.6707,4.6694,4.6697,4.6687,4.6684,4.6684,4.6677,4.6675,4.6681,4.6685,4.6689,4.6714,4.6712,4.6727,4.6732,4.6737,4.674,4.6755,4.6762,4.6689,4.6689,4.6689,0,0,4.6707,4.6702,4.6709,4.6713,4.6711,4.6721,4.6694,4.6705,4.6712,4.6685,4.67,4.6695,4.6692,4.6713,4.6722,4.671,4.676,4.6741,4.6745,4.6745,4.6759,4.6766,4.6772,4.6691,4.669,4.669,0,0,4.6749,4.6746,4.6764,4.6763,4.6761,4.6752,4.6757,4.675,4.6746,4.6762,4.6742,4.675,4.676,4.6759,4.676,4.6804,4.6789,4.6806,4.6835,4.685,4.6855,4.686,4.6878,4.6884,4.6809,4.6809,4.6809,0,4.6774,4.6789,4.6774,4.6788,4.679,4.6768,4.6786,4.6785,4.6784,4.6786,4.6773,4.6787,4.6783,4.6804,4.6815,4.6816,4.6821,4.6807,4.6856,4.6861,4.6865,4.6881,4.6888,4.6812,4.6811,4.6811,4.6811,0,4.6821,4.6831,4.6846,4.6848,4.6852,4.6867,4.6855,4.6861,4.685,4.6843,4.686,4.6854,4.6858,4.6862,4.6851,4.6883,4.6876,4.6859,4.6836,4.6875,4.689,4.6896,4.6815,4.6814,4.6813,4.6813,0,0,4.6882,4.6877,4.6883,4.6884,4.6881,4.6889,4.6904,4.6909,4.6915,4.6916,4.6928,4.6938,4.6924,4.6925,4.6913,4.6926,4.6963,4.6908,4.6908,4.692,4.7,4.7013,4.702,4.6953,4.6954,4.6955,4.7,0,4.6924,4.695,4.6938,4.6965,4.6976,4.6955,4.6968,4.6968,4.6962,4.697,4.6963,4.6971,4.6951,4.6952,4.6963,4.6956,4.6979,4.6953,4.6964,4.6965,4.6967,4.7028,4.7041,4.7084,4.7006,4.7007,4.7007,0,4.6976,4.6981,4.701,4.7007,4.7011,4.7023,4.7028,4.7035,4.7035,4.703,4.7032,4.7018,4.7032,4.7009,4.7029,4.7011,4.7015,4.7013,4.7014,4.7015,4.6989,4.7032,4.7098,4.7105,4.7016,4.7015,4.7015,0,4.702,4.7033,4.7053,4.7054,4.7051,4.706,4.7059,4.7058,4.7062,4.7066,4.7069,4.7074,4.7077,4.7081,4.7069,4.7053,4.7091,4.7066,4.7088,4.7089,4.7098,4.7097,4.7167,4.7099,4.7098,4.7098,4.7098,0,4.7068,4.7087,4.7073,4.7085,4.7106,4.7092,4.7113,4.7109,4.7108,4.712,4.7101,4.7112,4.7095,4.7104,4.7094,4.7114,4.7114,4.7111,4.7109,4.7113,4.7114,4.7116,4.7114,4.71,4.71,4.7099,4.7099,0,4.7121,4.7112,4.7133,4.7129,4.7128,4.7144,4.714,4.7151,4.7145,4.7159,4.7162,4.7151,4.7161,4.715,4.7158,4.7152,4.7178,4.717,4.7179,4.7177,4.72,4.7199,4.7274,4.7284,4.7209,4.721,4.721,0,4.7153,4.7168,4.7166,4.7173,4.7173,4.7184,4.7189,4.7176,4.7182,4.7184,4.7195,4.7204,4.721,4.7227,4.722,4.7227,4.722,4.7246,4.722,4.7226,4.7222,4.7222,4.7224,4.7251,4.7252,4.7253,4.7253,0,4.7211,4.7207,4.7216,4.7224,4.7231,4.7236,4.724,4.7246,4.7233,4.724,4.7251,4.7256,4.7266,4.7275,4.7281,4.7279,4.7264,4.7261,4.7267,4.7273,4.7278,4.7277,4.7194,4.726,4.7259,4.7259,4.7258,4.7258,4.7256,4.7268,4.727,4.7281,4.7283,4.7287,4.7298,4.7294,4.7303,4.7311,4.7302,4.7316,4.7316,4.7322,4.7322,4.7332,4.7321,4.7329,4.7331,4.7334,4.7338,4.7276,4.7333,4.7333,4.7333,4.7332,4.7332,0,4.7315,4.7315,4.7325,4.7332,4.7341,4.7328,4.7331,4.734,4.7352,4.7354,4.7362,4.7375,4.7384,4.7378,4.7386,4.7396,4.739,4.7399,4.7398,4.7398,4.7347,4.7342,4.7404,4.7404,4.7404,4.7404,4.7404,4.7404,4.7346,4.7368,4.7364,4.7386,4.7386,4.7401,4.7404,4.7409,4.741,4.7426,4.7435,4.7431,4.743,4.7439,4.7447,4.7445,4.7449,4.7461,4.7457,4.7409,4.7402,4.7395,4.739,4.7462,4.7462,4.7508,4.7508,4.7508]}]]